SCP
0 -0 -0 -0 -0 -0 0 0 -0 -0 -0 -0 -0 -0 -0 -0 -0 -0 -0 -0 -0 -0 0 -0 -0 -0 -0 -0 0 -0 0 0 0 0 0 0 0 0 0 0 0 0 0 0 0 0 0 0 -0
0 -0 0 -0 -0 0 -0 0 0 -0 -0 -0 -0 -0 -0 -0 -0 -0 -0 -0 -0 -0 0 -0 -0 0 -0 -0 0 -0 0 0 0 0 0 0 0 0 0 0 0 0 0 0 0 0 0 0 0
0 0 0 -0 -0 0 0 -0 0 -0 -0 -0 -0 -0 -0 -0 -0 -0 -0 -0 0 -0 -0 -0 -0 -0 -0 -0 -0 -0 -0 0 0 -0 0 -0 -0 -0 0 0 0 0 0 0 0 0 0 -0 -0
0 0 0 -0 -0 0 0 0 -0 -0 -0 -0 -0 -0 -0 -0 -0 -0 -0 -0 -0 -0 -0 -0 -0 -0 -0 -0 -0 -0 0 0 0 -0 -0 -0 -0 -0 0 -0 0 0 -0 -0 -0 -0 -0 0 -0
0 0 0 0 -0 0 0 -0 -0 -0 -0 -0 -0 -0 -0 -0 -0 -0 -0 -0 -0 -0 -0 -0 -0 -0 -0 -0 -0 0 0 0 0 0 0 -0 -0 -0 -0 -0 -0 -0 -0 -0 0 0 -0 -0 0
0 0 0 0 0 -0 0 0 -0 -0 -0 -0 -0 -0 -0 -0 -0 -0 -0 -0 -0 0 -0 -0 -0 -0 -0 -0 -0 -0 0 0 0 0 0 0 0 0 0 0 -0 -0 -0 -0 0 -0 0 0 0
0 0 0 0 0 -0 -0 -0 -0 0 0 -0 -0 -0 -0 -0 -0 -0 -0 -0 0 0 -0 0 0 0 -0 -0 -0 -0 0 0 0 0 0 0 0 0 0 0 -0 -0 0 0 0 0 0 0 0
0 0 0 0 0 -0 0 0 0 0 0 -0 -0 0 -0 -0 -0 -0 -0 -1 -0 -0 0 0 0 0 -0 0 -0 -0 0 0 0 0 0 0 0 -0 -0 0 0 0 0 0 0 0 0 -0 -0
0 0 0 0 0 -0 0 0 0 0 0 0 0 -0 -0 -0 -0 -0 -0 -0 -0 -0 -0 0 0 -0 -0 -0 -0 -0 0 0 0 0 0 0 0 0 -0 -0 -0 -0 -0 -0 -0 -0 -0 -0 -0
0 0 0 0 -0 0 0 0 0 0 0 0 -0 -1 -0 -0 -0 -0 -0 -0 -0 -0 -0 -0 -0 -0 0 -0 -0 0 -0 0 0 0 0 0 0 0 0 -0 -0 -0 -0 -0 -0 -0 -0 -0 0
0 0 0 0 0 0 0 0 0 0 0 0 0 0 -0 -0 0 -0 -0 -0 -0 -0 0 -0 0 0 -0 -0 -0 0 0 0 0 0 -0 -0 0 0 0 0 0 0 -0 0 0 0 0 0 0
0 0 0 0 0 0 0 0 0 0 0 0 0 0 0 0 0 0 0 -0 -0 -0 -0 -0 -0 0 0 -0 -0 -0 0 0 0 0 0 0 0 0 0 0 0 0 0 0 0 0 0 0 0
0 0 0 0 0 0 0 0 1 1 0 0 0 0 0 0 0 0 0 0 0 0 0 0 -0 0 0 0 0 0 0 0 0 0 0 0 0 0 0 0 0 0 0 0 0 0 0 0 0
0 0 0 0 0 0 0 1 1 2 0 0 0 0 0 0 0 0 0 0 0 0 0 0 -0 0 0 0 0 0 0 0 0 0 0 0 0 0 0 0 0 0 0 0 0 -0 0 -0 0
0 0 0 0 0 0 0 0 0 0 1 0 0 0 0 0 0 0 0 0 0 0 0 0 0 0 0 0 0 0 0 0 0 0 0 0 0 0 0 0 0 0 0 0 0 0 0 0 0
0 0 0 0 0 0 0 0 0 0 0 0 0 0 0 0 0 0 1 0 0 0 0 0 0 0 0 0 0 0 0 0 0 0 0 0 0 0 0 0 0 0 0 0 0 0 0 0 0
0 0 0 0 0 0 0 0 0 0 0 0 0 0 0 0 0 1 0 0 0 0 0 0 0 0 0 0 0 0 0 0 0 0 0 0 0 0 0 0 0 0 0 0 0 0 0 0 0
0 0 0 0 0 0 0 0 0 0 0 0 0 0 0 0 0 0 0 0 0 0 0 0 0 0 0 0 0 0 0 0 0 0 0 0 0 0 0 0 0 0 0 0 0 0 0 0 -0
0 0 0 0 -0 0 0 0 0 0 0 0 0 0 0 0 0 0 0 0 0 0 0 0 0 0 0 0 0 0 0 0 0 0 0 0 0 0 0 0 0 0 0 0 0 0 0 0 -0
0 0 0 0 0 0 0 0 0 0 0 0 1 0 0 0 0 0 0 0 0 0 0 0 0 0 0 0 0 0 0 0 0 0 0 0 0 0 0 0 0 0 0 0 0 0 0 0 0
0 0 0 0 0 0 0 0 0 0 0 0 0 0 0 0 0 0 0 0 0 0 0 0 0 0 0 0 0 0 0 0 0 0 0 0 0 0 0 0 0 0 0 0 0 0 0 0 0
0 0 0 0 0 0 0 0 0 0 0 0 0 0 0 0 0 0 0 0 0 0 0 0 0 0 0 0 0 0 0 0 0 0 0 0 0 0 0 0 0 0 0 0 0 0 0 0 0
0 0 0 0 0 0 0 0 0 0 0 0 0 0 0 0 0 0 0 0 0 0 0 0 0 0 0 0 0 0 0 0 0 0 0 0 0 0 0 0 0 0 0 0 0 0 0 0 0
0 0 0 0 0 0 0 0 0 0 0 0 0 0 0 0 0 0 0 0 0 0 0 0 0 0 0 0 0 0 0 0 0 0 0 0 0 0 0 0 0 0 0 0 0 0 0 0 0
0 0 0 0 0 0 0 0 0 0 0 0 0 0 0 0 0 0 0 0 0 0 0 0 0 0 0 0 0 0 0 0 0 0 0 0 0 0 0 0 0 0 0 0 0 0 0 0 0
0 0 0 0 0 0 0 0 0 0 0 0 0 0 0 0 0 0 0 0 0 0 0 0 0 0 0 0 0 0 0 0 0 0 0 0 0 0 0 0 0 0 0 0 0 0 0 0 0
0 0 0 0 0 0 0 0 0 0 0 0 0 0 0 0 0 0 0 0 0 0 0 0 0 0 0 0 0 0 0 0 0 0 0 0 0 0 0 0 0 0 0 0 0 0 0 0 0
0 0 0 0 0 0 0 0 0 0 0 0 0 0 0 0 0 0 0 0 0 0 0 0 0 0 0 0 0 0 0 0 0 0 0 0 0 0 0 0 0 0 0 0 0 0 0 0 0
0 0 0 0 0 0 0 0 0 0 0 0 0 0 0 0 0 0 0 0 0 0 0 0 0 0 0 0 0 0 0 0 0 0 0 0 0 0 0 0 0 0 0 0 0 0 0 0 0
0 0 0 0 0 0 0 0 0 0 0 0 0 1 0 0 0 0 0 0 0 0 0 0 0 0 0 0 0 0 0 0 0 0 0 0 0 0 0 0 0 0 0 0 0 0 0 0 0
Wind_Speed_500mb
27 14 19 13 10 12 10 23 23 30 28 36 39 47 41 37 23 29 55 41 33 37 32 28 29 32 33 34 30 27 26 25 21 19 18 18 18 19 16 16 16 15 12 18 21 24 28 31 32
20 7 19 17 14 21 16 37 25 32 43 36 33 58 48 45 56 54 51 43 36 39 34 32 31 34 34 34 30 27 25 22 21 20 19 19 20 18 17 16 17 14 15 20 27 29 30 32 32
16 2 17 11 22 15 13 31 35 36 42 37 45 40 23 39 36 43 52 45 42 36 35 34 35 36 35 33 30 26 23 22 21 21 21 22 22 20 20 20 18 13 17 25 29 29 30 30 31
9 16 19 17 33 31 13 20 52 24 40 46 56 35 50 35 44 51 49 43 44 31 35 33 33 35 35 32 28 24 22 21 21 21 21 21 22 23 22 21 19 18 20 24 27 28 27 25 24
23 25 22 32 39 14 30 38 79 28 38 46 53 33 29 35 49 49 45 43 41 31 33 34 33 32 30 28 25 22 20 19 19 20 20 20 21 23 23 22 21 21 23 24 23 20 18 18 18
23 36 26 28 36 23 40 36 75 33 39 58 53 59 38 45 50 47 42 40 27 25 34 33 32 30 28 25 23 20 18 16 16 17 19 20 20 21 21 21 21 20 20 18 17 14 13 13 13
27 23 35 37 39 26 28 75 31 36 29 43 59 24 38 46 47 45 42 36 26 19 30 32 30 27 25 22 19 18 16 15 16 16 18 20 21 18 18 18 17 16 16 14 11 9 6 7 8
40 24 45 39 35 40 23 30 15 42 28 51 47 18 51 54 52 46 43 39 33 31 13 23 25 25 22 20 18 15 14 14 14 15 19 22 25 20 18 13 11 10 9 8 6 4 1 2 4
40 22 27 40 41 41 33 30 36 48 45 24 12 49 66 57 57 47 49 37 40 32 28 22 19 13 18 16 15 15 16 17 15 13 17 23 18 19 14 16 9 6 3 2 3 5 8 10 13
31 23 36 43 38 33 41 75 40 34 35 42 55 65 61 55 53 51 47 42 35 34 34 32 27 23 19 13 9 15 15 13 15 13 21 13 5 8 6 12 15 11 10 7 11 11 14 11 11
41 31 37 43 41 27 11 20 31 38 22 42 49 55 56 54 48 45 44 40 38 31 29 29 27 25 11 17 9 9 16 12 7 8 12 1 2 5 6 12 10 17 12 12 16 14 17 12 13
41 46 48 50 26 24 17 19 22 34 28 42 43 50 55 53 48 42 42 41 42 36 29 19 22 32 31 20 12 18 15 8 5 12 7 11 6 4 4 3 10 13 9 10 15 14 16 23 23
45 38 53 49 6 20 42 23 13 27 47 49 49 51 52 51 47 43 41 39 41 39 34 29 19 28 32 28 11 16 23 23 17 10 11 17 13 12 11 7 4 1 10 5 6 12 15 13 21
53 51 33 43 15 32 36 31 25 13 32 47 52 51 49 47 45 44 42 41 38 36 32 32 29 23 34 27 26 32 28 22 20 22 11 16 20 17 12 7 13 16 17 19 24 26 25 30 29
47 43 28 43 26 32 21 24 19 30 25 39 46 47 47 46 43 41 38 35 36 34 45 50 38 32 35 35 37 37 31 21 21 13 11 10 10 7 12 15 22 19 22 22 23 25 22 25 29
37 40 32 34 27 31 26 35 31 43 41 39 42 48 44 42 40 39 40 38 38 48 46 49 47 41 43 44 40 34 26 31 21 12 10 12 11 10 11 15 17 7 7 22 19 20 17 18 19
35 34 41 45 42 31 32 28 39 51 49 48 51 50 48 45 45 42 39 38 35 47 50 44 43 43 40 41 40 36 27 24 17 17 15 15 13 11 15 14 8 7 12 22 19 16 17 17 25
41 40 44 42 45 44 43 35 38 54 54 55 52 49 47 49 43 40 40 37 38 45 44 48 46 41 39 37 35 28 26 23 22 20 17 20 15 11 13 8 6 12 15 18 17 15 13 16 31
44 48 52 44 46 50 45 43 43 53 54 52 52 52 52 47 42 40 41 42 45 40 31 32 30 32 34 34 30 27 23 20 23 20 18 14 10 8 9 10 7 12 14 15 15 13 9 21 28
48 50 53 48 47 40 42 45 42 43 48 54 55 56 56 53 46 40 39 38 40 32 33 31 30 30 30 30 25 25 23 22 15 14 11 10 9 7 7 9 5 5 11 9 11 12 13 17 32
44 46 46 52 36 11 34 39 36 43 45 49 54 57 58 59 50 45 42 42 31 31 36 35 32 31 30 30 29 25 21 17 13 11 13 10 8 5 2 1 1 3 6 12 14 13 18 21 28
42 42 42 46 47 20 37 21 34 37 37 40 54 54 54 55 49 45 45 44 38 27 36 36 34 33 32 29 26 19 17 26 23 17 11 9 6 5 4 3 3 4 7 7 14 18 21 17 24
38 37 39 45 46 32 40 29 32 52 41 45 42 53 55 58 55 51 47 43 42 38 27 28 34 33 34 28 23 30 38 31 25 17 13 12 10 9 8 7 8 10 13 19 21 23 22 23 23
34 32 37 40 33 34 44 33 36 36 48 45 46 57 55 59 61 56 49 48 46 42 47 45 41 40 39 44 39 38 35 30 22 19 17 13 11 12 12 13 14 16 18 19 20 21 23 24 24
30 28 23 24 28 30 43 47 31 45 42 48 51 74 75 66 62 64 61 57 50 50 49 48 45 43 43 44 46 41 37 31 29 25 18 15 11 13 14 15 15 17 18 17 20 21 23 23 26
37 35 24 28 30 34 45 50 45 38 45 64 75 72 74 70 68 66 64 63 58 56 53 50 49 46 43 43 41 40 35 31 32 28 29 24 18 17 18 17 16 17 18 18 19 20 21 23 24
45 38 38 36 38 28 33 45 52 39 50 54 62 92 90 83 74 68 64 64 63 61 57 57 54 47 45 42 40 38 38 37 38 38 31 24 21 21 20 17 16 17 18 18 17 21 22 23 24
38 31 31 25 41 42 41 47 34 39 51 54 46 70 86 89 80 77 71 67 65 63 59 58 53 49 48 45 43 43 42 36 32 33 31 30 27 23 21 19 17 17 18 18 17 20 23 23 26
28 31 35 32 27 32 36 34 40 37 32 41 44 78 93 92 95 88 82 80 73 64 59 59 56 54 51 49 45 43 39 38 36 33 31 31 29 26 22 20 18 18 18 19 21 20 21 22 26
43 41 37 26 42 31 28 36 35 33 21 17 33 70 80 94 94 87 79 76 68 64 64 68 62 61 57 51 50 46 42 40 37 36 34 32 31 28 24 21 20 18 18 19 20 19 20 22 25
Wind_Direction_500mb
315 353 13 284 257 224 288 279 102 116 85 70 65 72 75 50 45 104 121 120 136 123 118 112 110 108 105 104 106 106 103 101 96 88 87 88 96 102 102 107 125 122 97 88 100 105 103 99 96
316 281 282 267 251 93 299 306 325 86 90 95 108 81 73 80 96 113 115 120 126 120 118 112 109 109 110 108 109 105 100 94 92 91 83 90 92 92 100 115 128 120 108 109 113 113 107 102 98
305 206 266 232 245 235 142 268 302 111 118 111 79 73 81 114 117 121 127 125 118 125 119 116 114 112 111 109 107 102 95 89 85 87 83 83 86 88 101 111 120 117 111 119 115 112 104 101 98
312 255 254 251 271 72 167 115 260 137 117 106 101 82 92 100 114 128 131 126 128 142 125 119 117 117 117 115 110 105 100 92 84 78 83 88 90 85 98 100 104 107 113 118 117 114 109 100 98
257 273 253 265 269 153 135 169 223 141 116 120 118 115 103 108 126 132 132 131 147 144 132 126 123 120 118 118 117 115 110 104 95 89 84 83 82 86 95 94 98 105 114 120 117 112 100 91 90
261 246 262 262 260 247 130 236 230 128 135 110 105 115 106 126 133 136 136 137 150 156 142 133 129 126 123 123 122 119 114 103 90 84 82 83 83 83 90 100 107 111 113 117 116 106 91 78 73
252 271 252 260 264 251 200 203 140 135 134 128 137 117 136 139 139 140 140 135 137 147 143 140 136 132 127 123 119 117 113 106 97 90 83 76 73 78 88 97 107 121 129 135 138 121 89 58 46
249 267 276 272 261 270 191 168 142 143 127 125 135 150 157 148 141 138 144 158 155 149 153 145 139 137 133 126 117 107 98 89 84 82 81 74 63 50 40 76 93 112 131 150 165 162 228 333 342
259 264 262 262 261 264 102 334 92 100 119 110 153 142 151 148 150 145 143 137 146 162 164 154 145 134 132 123 120 112 100 82 74 69 90 59 51 22 9 17 41 57 67 60 13 329 331 332 339
232 251 247 266 273 276 168 174 119 122 119 100 86 118 140 148 152 151 152 156 152 159 171 166 162 164 133 98 85 89 92 89 82 59 83 53 127 173 260 14 15 10 11 360 12 352 347 357 22
232 237 261 267 318 341 156 151 141 135 153 137 133 139 146 150 154 156 159 162 166 172 166 172 181 148 154 139 54 91 82 41 75 180 139 270 185 350 17 3 4 1 27 17 353 343 350 353 331
249 240 249 263 311 326 276 233 150 166 173 147 148 152 151 155 159 163 164 163 163 165 173 192 196 160 163 143 176 138 153 146 256 171 181 143 333 18 86 250 331 321 343 341 319 334 311 296 316
247 242 247 256 291 296 278 125 113 88 128 143 148 157 160 160 163 164 163 164 165 165 171 178 220 188 173 149 170 186 159 176 144 211 205 175 165 190 190 12 263 124 226 233 271 318 279 298 305
256 254 245 259 232 261 261 123 127 120 139 148 156 162 165 164 166 160 158 158 159 165 164 163 211 215 162 163 189 207 194 207 202 224 175 173 198 196 163 229 257 262 259 247 261 254 274 275 282
267 274 247 252 209 237 224 139 178 160 166 158 162 167 169 171 161 153 158 154 161 156 176 182 184 169 180 182 190 206 205 196 206 225 203 202 224 245 201 222 235 238 259 269 270 272 265 262 268
253 255 253 235 214 214 190 209 181 169 179 179 182 172 165 166 162 164 163 162 175 179 186 193 196 183 192 193 206 213 209 213 218 235 241 261 263 260 233 243 270 298 298 283 292 291 288 295 306
244 245 226 246 200 199 198 227 180 170 179 185 184 179 172 170 168 163 164 167 182 198 204 208 202 202 203 205 215 226 224 224 228 248 252 261 268 262 262 275 299 275 271 296 314 323 311 332 290
231 230 244 237 237 200 193 224 155 175 181 191 185 173 178 183 171 170 171 168 193 210 206 214 213 210 210 215 223 228 225 225 234 246 250 257 245 245 253 285 301 290 299 308 316 321 331 327 305
253 246 242 234 244 194 205 207 169 180 188 190 186 179 185 180 177 173 171 171 196 213 204 190 196 204 211 213 218 220 222 221 220 238 233 231 234 214 250 283 290 295 312 322 330 338 25 344 342
241 257 256 262 238 192 207 218 174 181 188 197 187 186 184 181 167 175 170 177 206 202 181 181 190 193 194 185 185 184 176 185 196 207 203 193 205 228 249 267 293 293 323 2 19 32 65 25 7
252 243 247 257 260 227 200 213 194 173 188 202 202 197 190 179 175 178 177 176 200 190 181 181 189 191 190 190 190 189 186 170 160 177 183 178 189 208 255 316 24 9 14 27 33 40 60 57 49
258 252 261 264 261 198 220 223 190 177 198 203 203 201 192 176 179 182 179 175 176 197 178 179 187 194 192 191 185 170 156 138 173 200 174 167 145 131 150 148 103 72 75 73 70 69 69 73 65
260 280 278 268 266 251 226 229 220 193 199 204 200 202 196 181 181 183 182 175 171 169 168 173 177 182 175 165 158 145 176 187 184 179 155 138 143 153 146 127 125 110 88 71 64 63 61 60 62
249 258 263 269 270 256 249 224 234 226 193 191 201 203 203 183 180 183 184 176 175 174 174 176 170 175 173 175 177 181 189 180 174 147 143 154 150 139 131 122 106 94 85 73 63 58 56 53 55
259 240 244 249 246 249 251 248 223 228 198 188 196 197 198 186 182 182 182 177 177 176 181 176 178 174 177 176 179 184 178 174 171 153 157 145 152 139 123 112 102 93 87 76 66 60 56 52 48
236 231 228 235 231 241 246 243 244 223 261 205 195 195 190 185 185 187 185 182 181 185 185 175 180 180 179 179 179 178 178 164 156 161 159 174 169 146 126 117 104 95 88 78 68 64 59 53 49
234 248 246 234 259 263 261 249 245 239 218 254 201 187 186 181 184 189 191 185 185 186 185 180 182 182 177 176 176 164 164 172 174 173 176 168 148 140 133 123 109 98 91 85 69 66 63 56 50
228 244 247 225 239 249 253 257 260 227 222 226 233 188 177 178 183 185 187 187 187 193 188 185 183 181 180 176 175 173 175 181 170 162 165 160 155 145 136 127 114 102 96 90 79 72 65 57 52
236 237 248 268 261 233 253 250 256 267 272 227 228 169 174 177 183 184 184 186 187 187 185 182 180 180 181 180 173 178 174 171 169 173 164 158 152 145 141 130 120 108 99 94 89 66 71 59 51
266 260 246 231 253 259 259 251 268 270 302 358 246 164 176 180 180 181 183 178 179 183 188 182 179 185 184 176 179 177 175 171 173 168 165 160 155 151 145 137 127 115 106 99 92 83 71 58 50
Wind_Speed_850mb
27 14 19 13 10 12 10 23 23 30 28 36 39 47 41 37 23 29 55 41 33 37 32 28 29 32 33 34 30 27 26 25 21 19 18 18 18 19 16 16 16 15 12 18 21 24 28 31 32
20 7 19 17 14 21 16 37 25 32 43 36 33 58 48 45 56 54 51 43 36 39 34 32 31 34 34 34 30 27 25 22 21 20 19 19 20 18 17 16 17 14 15 20 27 29 30 32 32
16 2 17 11 22 15 13 31 35 36 42 37 45 40 23 39 36 43 52 45 42 36 35 34 35 36 35 33 30 26 23 22 21 21 21 22 22 20 20 20 18 13 17 25 29 29 30 30 31
9 16 19 17 33 31 13 20 52 24 40 46 56 35 50 35 44 51 49 43 44 31 35 33 33 35 35 32 28 24 22 21 21 21 21 21 22 23 22 21 19 18 20 24 27 28 27 25 24
23 25 22 32 39 14 30 38 79 28 38 46 53 33 29 35 49 49 45 43 41 31 33 34 33 32 30 28 25 22 20 19 19 20 20 20 21 23 23 22 21 21 23 24 23 20 18 18 18
23 36 26 28 36 23 40 36 75 33 39 58 53 59 38 45 50 47 42 40 27 25 34 33 32 30 28 25 23 20 18 16 16 17 19 20 20 21 21 21 21 20 20 18 17 14 13 13 13
27 23 35 37 39 26 28 75 31 36 29 43 59 24 38 46 47 45 42 36 26 19 30 32 30 27 25 22 19 18 16 15 16 16 18 20 21 18 18 18 17 16 16 14 11 9 6 7 8
40 24 45 39 35 40 23 30 15 42 28 51 47 18 51 54 52 46 43 39 33 31 13 23 25 25 22 20 18 15 14 14 14 15 19 22 25 20 18 13 11 10 9 8 6 4 1 2 4
40 22 27 40 41 41 33 30 36 48 45 24 12 49 66 57 57 47 49 37 40 32 28 22 19 13 18 16 15 15 16 17 15 13 17 23 18 19 14 16 9 6 3 2 3 5 8 10 13
31 23 36 43 38 33 41 75 40 34 35 42 55 65 61 55 53 51 47 42 35 34 34 32 27 23 19 13 9 15 15 13 15 13 21 13 5 8 6 12 15 11 10 7 11 11 14 11 11
41 31 37 43 41 27 11 20 31 38 22 42 49 55 56 54 48 45 44 40 38 31 29 29 27 25 11 17 9 9 16 12 7 8 12 1 2 5 6 12 10 17 12 12 16 14 17 12 13
41 46 48 50 26 24 17 19 22 34 28 42 43 50 55 53 48 42 42 41 42 36 29 19 22 32 31 20 12 18 15 8 5 12 7 11 6 4 4 3 10 13 9 10 15 14 16 23 23
45 38 53 49 6 20 42 23 13 27 47 49 49 51 52 51 47 43 41 39 41 39 34 29 19 28 32 28 11 16 23 23 17 10 11 17 13 12 11 7 4 1 10 5 6 12 15 13 21
53 51 33 43 15 32 36 31 25 13 32 47 52 51 49 47 45 44 42 41 38 36 32 32 29 23 34 27 26 32 28 22 20 22 11 16 20 17 12 7 13 16 17 19 24 26 25 30 29
47 43 28 43 26 32 21 24 19 30 25 39 46 47 47 46 43 41 38 35 36 34 45 50 38 32 35 35 37 37 31 21 21 13 11 10 10 7 12 15 22 19 22 22 23 25 22 25 29
37 40 32 34 27 31 26 35 31 43 41 39 42 48 44 42 40 39 40 38 38 48 46 49 47 41 43 44 40 34 26 31 21 12 10 12 11 10 11 15 17 7 7 22 19 20 17 18 19
35 34 41 45 42 31 32 28 39 51 49 48 51 50 48 45 45 42 39 38 35 47 50 44 43 43 40 41 40 36 27 24 17 17 15 15 13 11 15 14 8 7 12 22 19 16 17 17 25
41 40 44 42 45 44 43 35 38 54 54 55 52 49 47 49 43 40 40 37 38 45 44 48 46 41 39 37 35 28 26 23 22 20 17 20 15 11 13 8 6 12 15 18 17 15 13 16 31
44 48 52 44 46 50 45 43 43 53 54 52 52 52 52 47 42 40 41 42 45 40 31 32 30 32 34 34 30 27 23 20 23 20 18 14 10 8 9 10 7 12 14 15 15 13 9 21 28
48 50 53 48 47 40 42 45 42 43 48 54 55 56 56 53 46 40 39 38 40 32 33 31 30 30 30 30 25 25 23 22 15 14 11 10 9 7 7 9 5 5 11 9 11 12 13 17 32
44 46 46 52 36 11 34 39 36 43 45 49 54 57 58 59 50 45 42 42 31 31 36 35 32 31 30 30 29 25 21 17 13 11 13 10 8 5 2 1 1 3 6 12 14 13 18 21 28
42 42 42 46 47 20 37 21 34 37 37 40 54 54 54 55 49 45 45 44 38 27 36 36 34 33 32 29 26 19 17 26 23 17 11 9 6 5 4 3 3 4 7 7 14 18 21 17 24
38 37 39 45 46 32 40 29 32 52 41 45 42 53 55 58 55 51 47 43 42 38 27 28 34 33 34 28 23 30 38 31 25 17 13 12 10 9 8 7 8 10 13 19 21 23 22 23 23
34 32 37 40 33 34 44 33 36 36 48 45 46 57 55 59 61 56 49 48 46 42 47 45 41 40 39 44 39 38 35 30 22 19 17 13 11 12 12 13 14 16 18 19 20 21 23 24 24
30 28 23 24 28 30 43 47 31 45 42 48 51 74 75 66 62 64 61 57 50 50 49 48 45 43 43 44 46 41 37 31 29 25 18 15 11 13 14 15 15 17 18 17 20 21 23 23 26
37 35 24 28 30 34 45 50 45 38 45 64 75 72 74 70 68 66 64 63 58 56 53 50 49 46 43 43 41 40 35 31 32 28 29 24 18 17 18 17 16 17 18 18 19 20 21 23 24
45 38 38 36 38 28 33 45 52 39 50 54 62 92 90 83 74 68 64 64 63 61 57 57 54 47 45 42 40 38 38 37 38 38 31 24 21 21 20 17 16 17 18 18 17 21 22 23 24
38 31 31 25 41 42 41 47 34 39 51 54 46 70 86 89 80 77 71 67 65 63 59 58 53 49 48 45 43 43 42 36 32 33 31 30 27 23 21 19 17 17 18 18 17 20 23 23 26
28 31 35 32 27 32 36 34 40 37 32 41 44 78 93 92 95 88 82 80 73 64 59 59 56 54 51 49 45 43 39 38 36 33 31 31 29 26 22 20 18 18 18 19 21 20 21 22 26
43 41 37 26 42 31 28 36 35 33 21 17 33 70 80 94 94 87 79 76 68 64 64 68 62 61 57 51 50 46 42 40 37 36 34 32 31 28 24 21 20 18 18 19 20 19 20 22 25
Wind_Direction_850mb
315 353 13 284 257 224 288 279 102 116 85 70 65 72 75 50 45 104 121 120 136 123 118 112 110 108 105 104 106 106 103 101 96 88 87 88 96 102 102 107 125 122 97 88 100 105 103 99 96
316 281 282 267 251 93 299 306 325 86 90 95 108 81 73 80 96 113 115 120 126 120 118 112 109 109 110 108 109 105 100 94 92 91 83 90 92 92 100 115 128 120 108 109 113 113 107 102 98
305 206 266 232 245 235 142 268 302 111 118 111 79 73 81 114 117 121 127 125 118 125 119 116 114 112 111 109 107 102 95 89 85 87 83 83 86 88 101 111 120 117 111 119 115 112 104 101 98
312 255 254 251 271 72 167 115 260 137 117 106 101 82 92 100 114 128 131 126 128 142 125 119 117 117 117 115 110 105 100 92 84 78 83 88 90 85 98 100 104 107 113 118 117 114 109 100 98
257 273 253 265 269 153 135 169 223 141 116 120 118 115 103 108 126 132 132 131 147 144 132 126 123 120 118 118 117 115 110 104 95 89 84 83 82 86 95 94 98 105 114 120 117 112 100 91 90
261 246 262 262 260 247 130 236 230 128 135 110 105 115 106 126 133 136 136 137 150 156 142 133 129 126 123 123 122 119 114 103 90 84 82 83 83 83 90 100 107 111 113 117 116 106 91 78 73
252 271 252 260 264 251 200 203 140 135 134 128 137 117 136 139 139 140 140 135 137 147 143 140 136 132 127 123 119 117 113 106 97 90 83 76 73 78 88 97 107 121 129 135 138 121 89 58 46
249 267 276 272 261 270 191 168 142 143 127 125 135 150 157 148 141 138 144 158 155 149 153 145 139 137 133 126 117 107 98 89 84 82 81 74 63 50 40 76 93 112 131 150 165 162 228 333 342
259 264 262 262 261 264 102 334 92 100 119 110 153 142 151 148 150 145 143 137 146 162 164 154 145 134 132 123 120 112 100 82 74 69 90 59 51 22 9 17 41 57 67 60 13 329 331 332 339
232 251 247 266 273 276 168 174 119 122 119 100 86 118 140 148 152 151 152 156 152 159 171 166 162 164 133 98 85 89 92 89 82 59 83 53 127 173 260 14 15 10 11 360 12 352 347 357 22
232 237 261 267 318 341 156 151 141 135 153 137 133 139 146 150 154 156 159 162 166 172 166 172 181 148 154 139 54 91 82 41 75 180 139 270 185 350 17 3 4 1 27 17 353 343 350 353 331
249 240 249 263 311 326 276 233 150 166 173 147 148 152 151 155 159 163 164 163 163 165 173 192 196 160 163 143 176 138 153 146 256 171 181 143 333 18 86 250 331 321 343 341 319 334 311 296 316
247 242 247 256 291 296 278 125 113 88 128 143 148 157 160 160 163 164 163 164 165 165 171 178 220 188 173 149 170 186 159 176 144 211 205 175 165 190 190 12 263 124 226 233 271 318 279 298 305
256 254 245 259 232 261 261 123 127 120 139 148 156 162 165 164 166 160 158 158 159 165 164 163 211 215 162 163 189 207 194 207 202 224 175 173 198 196 163 229 257 262 259 247 261 254 274 275 282
267 274 247 252 209 237 224 139 178 160 166 158 162 167 169 171 161 153 158 154 161 156 176 182 184 169 180 182 190 206 205 196 206 225 203 202 224 245 201 222 235 238 259 269 270 272 265 262 268
253 255 253 235 214 214 190 209 181 169 179 179 182 172 165 166 162 164 163 162 175 179 186 193 196 183 192 193 206 213 209 213 218 235 241 261 263 260 233 243 270 298 298 283 292 291 288 295 306
244 245 226 246 200 199 198 227 180 170 179 185 184 179 172 170 168 163 164 167 182 198 204 208 202 202 203 205 215 226 224 224 228 248 252 261 268 262 262 275 299 275 271 296 314 323 311 332 290
231 230 244 237 237 200 193 224 155 175 181 191 185 173 178 183 171 170 171 168 193 210 206 214 213 210 210 215 223 228 225 225 234 246 250 257 245 245 253 285 301 290 299 308 316 321 331 327 305
253 246 242 234 244 194 205 207 169 180 188 190 186 179 185 180 177 173 171 171 196 213 204 190 196 204 211 213 218 220 222 221 220 238 233 231 234 214 250 283 290 295 312 322 330 338 25 344 342
241 257 256 262 238 192 207 218 174 181 188 197 187 186 184 181 167 175 170 177 206 202 181 181 190 193 194 185 185 184 176 185 196 207 203 193 205 228 249 267 293 293 323 2 19 32 65 25 7
252 243 247 257 260 227 200 213 194 173 188 202 202 197 190 179 175 178 177 176 200 190 181 181 189 191 190 190 190 189 186 170 160 177 183 178 189 208 255 316 24 9 14 27 33 40 60 57 49
258 252 261 264 261 198 220 223 190 177 198 203 203 201 192 176 179 182 179 175 176 197 178 179 187 194 192 191 185 170 156 138 173 200 174 167 145 131 150 148 103 72 75 73 70 69 69 73 65
260 280 278 268 266 251 226 229 220 193 199 204 200 202 196 181 181 183 182 175 171 169 168 173 177 182 175 165 158 145 176 187 184 179 155 138 143 153 146 127 125 110 88 71 64 63 61 60 62
249 258 263 269 270 256 249 224 234 226 193 191 201 203 203 183 180 183 184 176 175 174 174 176 170 175 173 175 177 181 189 180 174 147 143 154 150 139 131 122 106 94 85 73 63 58 56 53 55
259 240 244 249 246 249 251 248 223 228 198 188 196 197 198 186 182 182 182 177 177 176 181 176 178 174 177 176 179 184 178 174 171 153 157 145 152 139 123 112 102 93 87 76 66 60 56 52 48
236 231 228 235 231 241 246 243 244 223 261 205 195 195 190 185 185 187 185 182 181 185 185 175 180 180 179 179 179 178 178 164 156 161 159 174 169 146 126 117 104 95 88 78 68 64 59 53 49
234 248 246 234 259 263 261 249 245 239 218 254 201 187 186 181 184 189 191 185 185 186 185 180 182 182 177 176 176 164 164 172 174 173 176 168 148 140 133 123 109 98 91 85 69 66 63 56 50
228 244 247 225 239 249 253 257 260 227 222 226 233 188 177 178 183 185 187 187 187 193 188 185 183 181 180 176 175 173 175 181 170 162 165 160 155 145 136 127 114 102 96 90 79 72 65 57 52
236 237 248 268 261 233 253 250 256 267 272 227 228 169 174 177 183 184 184 186 187 187 185 182 180 180 181 180 173 178 174 171 169 173 164 158 152 145 141 130 120 108 99 94 89 66 71 59 51
266 260 246 231 253 259 259 251 268 270 302 358 246 164 176 180 180 181 183 178 179 183 188 182 179 185 184 176 179 177 175 171 173 168 165 160 155 151 145 137 127 115 106 99 92 83 71 58 50